This is the latest recevied weather packets stored in our database for station/object W0JRT-6. If no packets are shown the sender has not sent any weather packets the latest 10 day(s).
| Time | Temp. | Humidity | Pressure | Rain* | Wind** | Luminosity | Snow |
|---|---|---|---|---|---|---|---|
| 1777419601 | 16.11° C | 62% | 1009.2 hPa | 0 mm | - | - | - |
| 1777419004 | 16.67° C | 59% | 1009.2 hPa | 0 mm | - | - | - |
| 1777417812 | 16.67° C | 61% | 1009.1 hPa | 0 mm | - | - | - |
| 1777416610 | 16.11° C | 63% | 1009.1 hPa | 0 mm | - | - | - |
| 1777416009 | 16.67° C | 60% | 1009 hPa | 0 mm | - | - | - |
| 1777415785 | 16.11° C | 66% | 1009 hPa | 0 mm | - | - | - |
| 1777415402 | 16.11° C | 66% | 1009 hPa | 0 mm | - | - | - |
| 1777414809 | 16.67° C | 61% | 1008.9 hPa | 0 mm | - | - | - |
| 1777414726 | 17.22° C | 62% | 1008.9 hPa | 0 mm | - | - | - |
| 1777414212 | 17.22° C | 62% | 1008.9 hPa | 0 mm | - | - | - |
| 1777413012 | 16.67° C | 64% | 1009.1 hPa | 0 mm | - | - | - |
| 1777412714 | 16.67° C | 64% | 1009.1 hPa | 0 mm | - | - | - |
| 1777412404 | 16.67° C | 64% | 1009.1 hPa | 0 mm | - | - | - |
| 1777411198 | 16.11° C | 65% | 1009.2 hPa | 0 mm | - | - | - |
| 1777410612 | 16.11° C | 67% | 1009.2 hPa | 0 mm | - | - | - |
| 1777409399 | 15.56° C | 66% | 1009.9 hPa | 0 mm | - | - | - |
| 1777408799 | 15.56° C | 70% | 1010.1 hPa | 0 mm | - | - | - |
| 1777408204 | 15° C | 68% | 1010.7 hPa | 0 mm | - | - | - |
| 1777407611 | 15° C | 67% | 1010.8 hPa | 0 mm | - | - | - |
| 1777407010 | 15° C | 68% | 1010.5 hPa | 0 mm | - | - | - |
| 1777406536 | 15° C | 67% | 1010.4 hPa | 0 mm | - | - | - |
| 1777406405 | 15° C | 67% | 1010.4 hPa | 0 mm | - | - | - |
| 1777405198 | 14.44° C | 68% | 1010.4 hPa | 0 mm | - | - | - |
| 1777403400 | 14.44° C | 71% | 1010 hPa | 0 mm | - | - | - |
| 1777402801 | 14.44° C | 67% | 1010.1 hPa | 0 mm | - | - | - |
* Rain since midnight (hover to see other rain measurements)
** Current wind speed in m/s (hover to see current wind gust speed)